Manchester, NH

3:54 AM EST on November 18, 2017 (GMT -0500)
Manchester

Weather History for KMHT - April, 2014

Change the Weather History Date:

Friday, April 4, 2014

  Actual Average Record
Temperature  
Mean Temperature 40 °F 43 °F  
Max Temperature 48 °F 52 °F 78 °F (1950)
Min Temperature 34 °F 33 °F 13 °F (1954)
Degree Days  
Heating Degree Days 25 22  
Month to date heating degree days 92  
Since 1 July heating degree days 5652  
Cooling Degree Days 0 0  
Month to date cooling degree days 0  
Year to date cooling degree days 0  
Moisture  
Dew Point 26 °F    
Average Humidity 62    
Maximum Humidity 89    
Minimum Humidity 39    
Precipitation  
Precipitation 0.26 in 0.17 in 1.62 in (1975)
Month to date precipitation 0.73  
Year to date precipitation 10.86  
Snow  
Snow 0.00 in - - ()
Month to date snowfall  
Since 1 July snowfall  
Snow Depth -    
Sea Level Pressure  
Sea Level Pressure 30.10 in    
Wind  
Wind Speed 7 mph (East)    
Max Wind Speed 14 mph    
Max Gust Speed 20 mph    
Visibility 9 miles    
Events Rain    
T = Trace of Precipitation, MM = Missing Value Source: NWS Daily Summary

Daily Weather History Graph

Daily Weather History Graph

Search for Another Location

Airport or City:

Trip Planner

Search our weather history database for the weather conditions in past years. The results will help you decide how hot, cold, wet, or windy it might be!

Date:

Astronomy

Apr. 04, 2014 Rise Set
Actual Time 6:22 AM EDT 7:15 PM EDT
Civil Twilight 5:53 AM EDT 7:44 PM EDT
Nautical Twilight 5:19 AM EDT 8:18 PM EDT
Astronomical Twilight 4:44 AM EDT 8:54 PM EDT
Moon 9:31 AM EDT (4/4) No Moon Set
Length of Visible Light 13h 50m
Length of Day
12h 52m
Waxing Crescent, 25% of the Moon is Illuminated
Apr 4
Waxing Crescent
Apr 7
First Quarter
Apr 15
Full
Apr 22
Last Quarter
Apr 29
New

Hourly Weather History & Observations

Time (EDT) Temp. Windchill Dew Point Humidity Pressure Visibility Wind Dir Wind Speed Gust Speed Precip Events Conditions
12:53 AM 37.0 °F 34.5 °F 23.0 °F 57% 30.18 in 10.0 mi North 3.5 mph - N/A   Mostly Cloudy
1:53 AM 36.0 °F 32.1 °F 23.0 °F 59% 30.17 in 10.0 mi NNE 4.6 mph - N/A   Mostly Cloudy
2:53 AM 35.1 °F 30.1 °F 21.9 °F 59% 30.18 in 10.0 mi NNE 5.8 mph - N/A   Overcast
3:53 AM 36.0 °F 29.0 °F 21.0 °F 55% 30.17 in 10.0 mi ENE 9.2 mph - N/A   Overcast
4:53 AM 35.1 °F 29.3 °F 21.0 °F 57% 30.17 in 10.0 mi ENE 6.9 mph - N/A   Mostly Cloudy
5:53 AM 34.0 °F 31.0 °F 19.9 °F 56% 30.18 in 10.0 mi NE 3.5 mph - N/A   Mostly Cloudy
6:53 AM 34.0 °F 31.0 °F 19.9 °F 56% 30.19 in 10.0 mi NNE 3.5 mph - N/A   Scattered Clouds
7:53 AM 36.0 °F 31.1 °F 19.9 °F 52% 30.20 in 10.0 mi ENE 5.8 mph - N/A   Scattered Clouds
8:53 AM 37.9 °F 33.5 °F 17.1 °F 43% 30.21 in 10.0 mi East 5.8 mph - N/A   Clear
9:53 AM 39.9 °F 37.8 °F 18.0 °F 41% 30.20 in 10.0 mi East 3.5 mph - N/A   Clear
10:53 AM 43.0 °F 37.7 °F 19.9 °F 40% 30.18 in 10.0 mi SSE 9.2 mph - N/A   Clear
11:53 AM 46.0 °F 41.9 °F 21.9 °F 39% 30.16 in 10.0 mi SE 8.1 mph - N/A   Clear
12:53 PM 46.9 °F - 24.1 °F 41% 30.14 in 10.0 mi East 12.7 mph - N/A   Clear
1:53 PM 46.0 °F 40.2 °F 26.1 °F 46% 30.13 in 10.0 mi East 12.7 mph 19.6 mph N/A   Mostly Cloudy
2:53 PM 45.0 °F 38.5 °F 27.0 °F 49% 30.11 in 10.0 mi ESE 13.8 mph - N/A   Overcast
3:53 PM 45.0 °F 38.5 °F 28.0 °F 52% 30.09 in 10.0 mi SE 13.8 mph - N/A   Overcast
4:53 PM 42.1 °F 35.7 °F 30.0 °F 62% 30.06 in 10.0 mi East 11.5 mph - N/A   Overcast
5:53 PM 41.0 °F 35.8 °F 30.0 °F 65% 30.06 in 10.0 mi East 8.1 mph - N/A   Overcast
6:53 PM 39.9 °F 33.4 °F 32.0 °F 73% 30.02 in 10.0 mi ESE 10.4 mph - 0.00 in   Overcast
7:53 PM 39.0 °F 32.8 °F 32.0 °F 76% 29.99 in 10.0 mi ESE 9.2 mph 18.4 mph N/A   Overcast
8:53 PM 37.9 °F 32.7 °F 34.0 °F 86% 30.00 in 5.0 mi ESE 6.9 mph - 0.03 in Rain Rain
9:53 PM 37.9 °F 32.7 °F 35.1 °F 89% 29.99 in 5.0 mi East 6.9 mph - 0.10 in Rain Rain
10:43 PM 37.0 °F 31.0 °F 34.0 °F 89% 29.94 in 5.0 mi ESE 8.1 mph - 0.10 in Rain Light Rain
10:51 PM 37.4 °F 31.4 °F 33.8 °F 87% 29.94 in 5.0 mi ESE 8.1 mph - 0.10 in Rain Light Rain
10:53 PM 37.0 °F 31.6 °F 34.0 °F 89% 30.00 in 5.0 mi ESE 6.9 mph - 0.10 in Rain Light Rain
11:53 PM 37.0 °F 32.4 °F 33.1 °F 86% 29.97 in 10.0 mi East 5.8 mph - 0.03 in Rain Light Rain